Location: Ahstedt
(52.2048°N, 10.1060°E)
Time: 20:23:45
(UTC+00:00)

Cosmos 2082 Rocket - Pass Details

Date: 20 April 2026
Orbit: 831 x 853 km, 71.0° (Epoch: 13 May)

Event Time Altitude Azimuth Distance (km) Brightness Sun altitude
Exits shadow 01:28:55 39° 227° (SW) 1,251 2.6 -20.4°
Maximum altitude 01:31:05 74° 303° (WNW) 892 2.2 -20.2°
Drops below altitude 10° 01:36:50 10° 29° (NNE) 2,495 5.9 -19.7°
Sets 01:39:18 0° 31° (NNE) 3,434 7.0 -19.5°
